+ View the NASA Portal
+ Center for Near-Earth Object Studies
IMPORTANT:
The SSD Announcement email list is now available. Major changes are coming in the near future, including possible hostname and/or URL changes. To be notified of such changes, subscribe to this email list.
Please visit
this page
for more details.
Don't show this message again
JPL Small-Body Database Browser
Search:
[
help
]
277982 (2006 TF76)
Classification:
Main-belt Asteroid
SPK-ID:
2277982
[
Ephemeris
|
Orbit Diagram
|
Orbital Elements
|
Mission Design
|
Physical Parameters
|
Discovery Circumstances
]
[ show orbit diagram ]
Orbital Elements at Epoch 2458600.5 (2019-Apr-27.0) TDB
Reference:
JPL 10
(heliocentric ecliptic J2000)
Element
Value
Uncertainty (1-sigma)
Units
e
.1763489360503422
6.8517e-08
a
2.190908447202694
9.9329e-09
au
q
1.804544073554792
1.4951e-07
au
i
6.057162061747552
7.3447e-06
deg
node
177.8553498111477
5.5665e-05
deg
peri
178.0490641926565
5.8534e-05
deg
M
332.9187284828353
1.799e-05
deg
t
p
2458689.604845656700
(2019-Jul-25.10484566)
5.9206e-05
TDB
period
1184.499199606651
3.24
8.0553e-06
2.205e-08
d
yr
n
.3039259124189774
2.0669e-09
deg/d
Q
2.577272820850597
1.1685e-08
au
Orbit Determination Parameters
# obs. used (total)
205
data-arc span
5797 days (15.87 yr)
first obs. used
2003-12-22
last obs. used
2019-11-05
planetary ephem.
DE431
SB-pert. ephem.
SB431-N16
condition code
0
norm. resid. RMS
.62042
source
ORB
producer
Otto Matic
solution date
2019-Dec-04 20:12:18
Additional Information
Earth MOID
= .799219 au
Jupiter MOID
= 2.86273 au
T_jup
= 3.645
[ show covariance matrix ]
[
Ephemeris
|
Orbit Diagram
|
Orbital Elements
|
Mission Design
|
Physical Parameters
|
Discovery Circumstances
]
Physical Parameter Table
Parameter
Symbol
Value
Units
Sigma
Reference
Notes
absolute magnitude
H
17.6
n/a
MPO446376
277982 (2006 TF76)
Discovered 2006-Oct-11 by NEAT at Palomar
Reference:
20110517/Numbers.arc
Last Updated:
2011-05-20
Alternate Designations
2006 TF76
= 2006 UF326
[
Ephemeris
|
Orbit Diagram
|
Orbital Elements
|
Mission Design
|
Physical Parameters
|
Discovery Circumstances
]
2019-Dec-16 13:18 UT
(server date/time)
Site Manager:
Ryan S. Park
Webmaster
:
Alan B. Chamberlin